FW1130 Weather Reports


Display with metric or nautical units.
time (UTC)temp
F
wind
direction
speed
MPH
gust
MPH
rain 1hr
in
rain 24hr
in
rain mn
in
humidity
%
barometer
mb
20260504150341 64 125 0.0 0.0 0.00 0.00 0.00 69 1008.7
20260504141324 55 125 0.0 0.0 0.00 0.00 0.00 85 1008.4
20260504140827 54 125 0.0 0.0 0.00 0.00 0.00 85 1008.5
20260504140324 54 125 0.0 0.0 0.00 0.00 0.00 85 1008.4
20260504130327 53 125 0.0 0.0 0.00 0.00 0.00 83 1008.0
20260504110325 55 243 0.0 0.0 0.00 0.00 0.00 80 1007.9
20260504100323 56 243 0.0 0.0 0.00 0.00 0.00 78 1007.7
20260504081823 58 243 0.0 0.0 0.00 0.00 0.00 74 1007.3
20260504081327 59 243 0.0 0.0 0.00 0.00 0.00 73 1007.3
20260504080823 59 243 0.0 0.0 0.00 0.00 0.00 73 1007.3
20260504080337 59 243 0.0 0.0 0.00 0.00 0.00 73 1007.3
20260504070335 61 244 0.0 0.0 0.00 0.00 0.00 70 1007.1
20260504050332 66 243 327.0 327.0 0.00 0.00 0.00 61 1007.0
20260504045835 66 243 0.0 0.0 0.00 0.00 0.00 61 1007.0
20260504045338 66 243 0.0 0.0 0.00 0.00 0.00 60 1007.0
20260504044829 67 243 0.0 0.0 0.00 0.00 0.00 59 1007.0
20260504044337 67 243 0.0 0.0 0.00 0.00 0.00 59 1007.0
20260504043832 67 243 0.0 0.0 0.00 0.00 0.00 59 1007.0
20260504043357 68 243 0.0 0.0 0.00 0.00 0.00 58 1007.0
20260504042825 68 243 0.0 0.0 0.00 0.00 0.00 57 1007.0
20260504042324 68 243 0.0 0.0 0.00 0.00 0.00 56 1006.9
20260504041846 69 244 0.0 0.0 0.00 0.00 0.00 55 1007.0
20260504041350 69 243 0.0 0.0 0.00 0.00 0.00 54 1006.9
20260504040839 70 243 0.0 0.0 0.00 0.00 0.00 53 1006.9
20260504040329 70 243 0.0 0.0 0.00 0.00 0.00 52 1006.9
20260504035831 71 243 0.0 0.0 0.00 0.00 0.00 50 1006.8
20260504035330 71 244 0.0 0.0 0.00 0.00 0.00 49 1006.8
20260504034823 72 243 0.0 0.0 0.00 0.00 0.00 49 1006.8
20260504034337 72 243 0.0 0.0 0.00 0.00 0.00 47 1006.7
20260504033825 72 243 0.0 0.0 0.00 0.00 0.00 46 1006.7
20260504033343 73 243 0.0 0.0 0.00 0.00 0.00 47 1006.7
20260504032841 73 243 0.0 0.0 0.00 0.00 0.00 46 1006.7
20260504032335 74 243 0.0 0.0 0.00 0.00 0.00 45 1006.7
20260504031829 74 244 0.0 0.0 0.00 0.00 0.00 44 1006.7
20260504031328 75 243 0.0 0.0 0.00 0.00 0.00 44 1006.7
20260504030833 75 233 0.0 0.0 0.00 0.00 0.00 43 1006.7
20260504030338 76 233 0.0 0.0 0.00 0.00 0.00 42 1006.7
20260504025826 76 233 0.0 0.0 0.00 0.00 0.00 40 1006.8
20260504025325 77 233 0.0 0.0 0.00 0.00 0.00 40 1006.8
20260504024833 78 160 0.0 0.0 0.00 0.00 0.00 39 1006.8
20260504024348 78 206 0.0 0.0 0.00 0.00 0.00 38 1006.9
20260504023905 79 207 0.0 0.0 0.00 0.00 0.00 36 1006.8
20260504023357 79 207 0.0 0.0 0.00 0.00 0.00 34 1006.8
20260504022824 80 206 0.0 0.0 0.00 0.00 0.00 33 1006.8
20260504022407 80 207 0.0 0.0 0.00 0.00 0.00 33 1006.9
20260504021829 80 206 0.0 0.0 0.00 0.00 0.00 32 1006.8
20260504021328 80 219 0.0 0.0 0.00 0.00 0.00 32 1006.9
20260504020826 81 219 0.0 0.0 0.00 0.00 0.00 31 1006.9
20260504020349 81 214 0.0 0.0 0.00 0.00 0.00 30 1006.9
20260504015840 81 214 0.0 0.0 0.00 0.00 0.00 30 1007.0
20260504015340 82 214 0.0 0.0 0.00 0.00 0.00 30 1007.0
20260504014848 82 214 0.0 0.0 0.00 0.00 0.00 28 1007.0
20260504014325 83 209 0.0 0.0 0.00 0.00 0.00 28 1007.1
20260504013829 83 257 0.0 0.0 0.00 0.00 0.00 29 1007.1
20260504013340 83 321 0.0 0.0 0.00 0.00 0.00 28 1007.2
20260504012851 83 210 0.0 3.0 0.00 0.00 0.00 28 1007.3
20260504012326 83 317 0.0 3.0 0.00 0.00 0.00 28 1007.3
20260504011827 83 339 0.0 4.0 0.00 0.00 0.00 27 1007.5
20260504011325 83 222 0.0 1.0 0.00 0.00 0.00 28 1007.5
20260504010827 83 231 0.0 1.0 0.00 0.00 0.00 28 1007.5
20260504005835 83 190 0.0 0.0 0.00 0.00 0.00 28 1007.6
20260504005344 83 193 0.0 0.0 0.00 0.00 0.00 29 1007.7
20260504004827 83 315 0.0 0.0 0.00 0.00 0.00 28 1007.8
20260504004338 83 214 0.0 0.0 0.00 0.00 0.00 29 1007.8
20260504003835 84 220 0.0 0.0 0.00 0.00 0.00 28 1007.8
20260504003406 84 190 0.0 0.0 0.00 0.00 0.00 28 1007.9
20260504002839 84 218 0.0 0.0 0.00 0.00 0.00 28 1008.0
20260504002345 85 303 0.0 0.0 0.00 0.00 0.00 28 1008.0
20260504001905 84 163 0.0 0.0 0.00 0.00 0.00 28 1008.0
20260504001346 84 342 0.0 1.0 0.00 0.00 0.00 27 1008.1
20260504000356 84 237 0.0 1.0 0.00 0.00 0.00 28 1008.2
20260503235845 84 279 0.0 0.0 0.00 0.00 0.00 27 1008.3
20260503235326 84 329 0.0 0.0 0.00 0.00 0.00 27 1008.3
20260503234830 85 212 0.0 0.0 0.00 0.00 0.00 27 1008.4
20260503234347 85 187 0.0 0.0 0.00 0.00 0.00 27 1008.4
20260503233832 85 231 0.0 2.0 0.00 0.00 0.00 28 1008.5
20260503233330 85 181 0.0 0.0 0.00 0.00 0.00 28 1008.5
20260503232831 84 236 0.0 2.0 0.00 0.00 0.00 29 1008.6
20260503232337 84 206 0.0 2.0 0.00 0.00 0.00 30 1008.7
20260503231856 84 143 0.0 1.0 0.00 0.00 0.00 29 1008.7
20260503231329 84 241 0.0 2.0 0.00 0.00 0.00 30 1008.8
20260503230838 84 205 0.0 2.0 0.00 0.00 0.00 30 1008.9
20260503230334 83 212 0.0 0.0 0.00 0.00 0.00 31 1009.0
20260503225838 84 243 0.0 0.0 0.00 0.00 0.00 32 1009.0
20260503225347 84 210 0.0 6.0 0.00 0.00 0.00 33 1009.1
20260503224838 83 231 0.0 6.0 0.00 0.00 0.00 35 1009.1
20260503224344 84 185 0.0 1.0 0.00 0.00 0.00 33 1009.2
20260503223825 84 254 0.0 1.0 0.00 0.00 0.00 34 1009.3
20260503223340 84 237 0.0 0.0 0.00 0.00 0.00 33 1009.4
20260503222839 84 201 0.0 0.0 0.00 0.00 0.00 35 1009.4
20260503222338 83 198 0.0 0.0 0.00 0.00 0.00 35 1009.5
20260503221827 83 195 0.0 0.0 0.00 0.00 0.00 36 1009.6
20260503221331 84 265 0.0 1.0 0.00 0.00 0.00 37 1009.6
20260503220838 83 220 0.0 1.0 0.00 0.00 0.00 36 1009.7
20260503220326 82 256 0.0 2.0 0.00 0.00 0.00 36 1009.7
20260503215855 83 225 0.0 2.0 0.00 0.00 0.00 36 1009.8
20260503215401 82 223 0.0 1.0 0.00 0.00 0.00 36 1009.8
20260503214825 82 201 0.0 1.0 0.00 0.00 0.00 36 1009.9
20260503214334 82 220 0.0 1.0 0.00 0.00 0.00 37 1009.9
20260503213836 83 214 0.0 0.0 0.00 0.00 0.00 37 1010.0
20260503213324 83 205 0.0 0.0 0.00 0.00 0.00 37 1010.1
20260503212843 82 208 0.0 3.0 0.00 0.00 0.00 37 1010.2
20260503212335 82 165 0.0 3.0 0.00 0.00 0.00 37 1010.1
20260503211833 82 210 0.0 0.0 0.00 0.00 0.00 40 1010.2
20260503211331 81 241 0.0 0.0 0.00 0.00 0.00 39 1010.2
20260503210838 81 226 0.0 1.0 0.00 0.00 0.00 39 1010.3
20260503210341 81 217 0.0 1.0 0.00 0.00 0.00 38 1010.3
20260503205902 82 226 0.0 0.0 0.00 0.00 0.00 39 1010.4
20260503205346 81 226 0.0 0.0 0.00 0.00 0.00 41 1010.5
20260503204830 80 216 0.0 0.0 0.00 0.00 0.00 41 1010.6
20260503204405 80 214 0.0 0.0 0.00 0.00 0.00 41 1010.6
20260503203827 82 209 0.0 0.0 0.00 0.00 0.00 41 1010.7
20260503203340 81 134 0.0 1.0 0.00 0.00 0.00 42 1010.7
20260503202842 80 220 0.0 7.0 0.00 0.00 0.00 44 1010.8
20260503202357 78 146 0.0 7.0 0.00 0.00 0.00 47 1010.8
20260503201830 78 226 0.0 0.0 0.00 0.00 0.00 48 1010.9
20260503201331 77 212 0.0 1.0 0.00 0.00 0.00 49 1010.9
20260503200839 77 228 0.0 6.0 0.00 0.00 0.00 50 1011.1
20260503200336 77 211 0.0 1.0 0.00 0.00 0.00 50 1011.1
20260503195850 77 214 0.0 6.0 0.00 0.00 0.00 50 1011.2
20260503195344 77 233 1.0 6.0 0.00 0.00 0.00 49 1011.2
20260503194838 77 204 0.0 3.0 0.00 0.00 0.00 52 1011.3
20260503194335 77 208 0.0 1.0 0.00 0.00 0.00 50 1011.3
20260503193901 77 222 0.0 1.0 0.00 0.00 0.00 50 1011.3
20260503193334 77 177 0.0 0.0 0.00 0.00 0.00 48 1011.4
20260503192833 76 226 0.0 0.0 0.00 0.00 0.00 47 1011.6
20260503192339 76 129 0.0 0.0 0.00 0.00 0.00 47 1011.6
20260503191824 76 226 0.0 0.0 0.00 0.00 0.00 47 1011.7
20260503191324 76 245 0.0 0.0 0.00 0.00 0.00 48 1011.8
20260503190828 76 197 0.0 0.0 0.00 0.00 0.00 48 1011.8
20260503190345 76 193 0.0 0.0 0.00 0.00 0.00 47 1011.8
20260503185836 76 226 0.0 0.0 0.00 0.00 0.00 47 1011.9
20260503185338 75 201 0.0 0.0 0.00 0.00 0.00 47 1011.9
20260503184904 75 218 0.0 0.0 0.00 0.00 0.00 49 1012.0
20260503184359 75 185 0.0 0.0 0.00 0.00 0.00 49 1012.0
20260503183828 75 216 0.0 0.0 0.00 0.00 0.00 49 1012.0
20260503183346 75 226 0.0 0.0 0.00 0.00 0.00 50 1012.1
20260503182833 75 230 0.0 0.0 0.00 0.00 0.00 51 1012.1
20260503182346 75 231 0.0 0.0 0.00 0.00 0.00 51 1012.2
20260503181836 75 207 0.0 0.0 0.00 0.00 0.00 50 1012.3
20260503181333 75 156 0.0 0.0 0.00 0.00 0.00 50 1012.2
20260503180825 74 135 0.0 0.0 0.00 0.00 0.00 51 1012.2
20260503180332 74 214 0.0 0.0 0.00 0.00 0.00 50 1012.2
20260503175844 74 208 0.0 0.0 0.00 0.00 0.00 48 1012.2
20260503175338 73 201 0.0 0.0 0.00 0.00 0.00 48 1012.3
20260503174829 73 170 0.0 0.0 0.00 0.00 0.00 49 1012.3
20260503174326 73 170 0.0 0.0 0.00 0.00 0.00 48 1012.4
20260503173836 73 170 0.0 0.0 0.00 0.00 0.00 47 1012.4
20260503173326 72 170 0.0 0.0 0.00 0.00 0.00 48 1012.5
20260503172836 71 170 0.0 0.0 0.00 0.00 0.00 47 1012.5
20260503172339 71 170 0.0 0.0 0.00 0.00 0.00 49 1012.6
20260503171856 70 170 0.0 0.0 0.00 0.00 0.00 52 1012.6
20260503171345 69 170 0.0 0.0 0.00 0.00 0.00 53 1012.7
20260503170842 69 170 0.0 0.0 0.00 0.00 0.00 55 1012.7
20260503170330 69 170 0.0 0.0 0.00 0.00 0.00 54 1012.7
20260503150831 62 170 0.0 1.0 0.00 0.00 0.00 70 1013.4